Location: Harwich
(41.6860°N, 70.0760°W)
Time: 11:59:31
(UTC-05:00)

Daily predictions for brighter satellites

Satellite Brightness Start Highest point End
(mag) Time Altitude Azimuth Time Altitude Azimuth Time Altitude Azimuth
Cosmos 2333 4.2 17:03:35 10° SSW 17:09:12 81° ESE 17:14:49 10° NNE
Cosmos 2221 4.5 17:05:21 10° NNW 17:09:13 34° W 17:13:03 10° SSW
AQUARIUS 4.2 17:04:57 10° SSE 17:09:27 85° ENE 17:13:58 10° NNW
Cosmos 332 Rocket 3.9 17:07:25 10° S 17:12:09 62° ESE 17:16:58 10° NNE
NOSS 0 Rocket 4.4 17:07:41 10° S 17:13:28 42° ESE 17:19:17 10° NE
Cosmos 389 Rocket 3.2 17:10:02 10° NNW 17:13:35 61° W 17:17:04 10° S
Meteor 2-2 Rocket 4.2 17:09:05 10° N 17:14:41 65° ENE 17:20:17 10° SSE
Cosmos 2360 Rocket 3.6 17:10:02 10° SW 17:15:12 37° WNW 17:20:25 10° N
Cosmos 1980 4.2 17:12:11 10° S 17:17:24 39° ESE 17:22:40 10° NE
Cosmos 1328 4.3 17:15:38 10° SSE 17:19:17 38° E 17:22:59 10° NNE
USA 215 3.5 17:17:57 10° ESE 17:24:12 50° NNE 17:30:29 10° NW
Cosmos 540 Rocket 4.0 17:19:58 10° S 17:24:45 39° ESE 17:29:34 10° NE
MONITOR-E 4.3 17:22:03 10° SSE 17:25:09 56° ENE 17:28:16 10° N
Cosmos 2084 3.2 17:23:04 10° SSW 17:26:56 61° ESE 17:30:42 10° NE
CORIOLIS 4.4 17:24:30 10° S 17:29:50 74° WSW 17:35:13 10° NNW
Cosmos 44 3.8 17:25:17 10° S 17:30:19 46° ESE 17:35:09 10° NE
BREEZE-M DEB (TANK) 3.3 17:28:23 10° SSW 17:30:37 25° SE 17:32:07 14° E
ALOS 3.8 17:29:00 10° E 17:31:36 15° ENE 17:34:12 10° NNE
Cosmos 2333 Rocket 2.2 17:26:19 10° S 17:31:52 63° ESE 17:37:27 10° NNE
SJ-6B 4.1 17:30:18 10° ESE 17:33:28 22° ENE 17:36:41 10° NNE
OTV 4 2.0 17:32:46 10° WSW 17:35:28 31° S 17:38:08 10° SE
Resurs 01 Rocket 3.1 17:40:01 16° ENE 17:40:48 16° ENE 17:43:32 10° NNE
Cosmos 2219 Rocket 2.2 17:35:48 10° SSW 17:41:28 86° WNW 17:47:08 10° NNE
Cosmos 371 Rocket 3.3 17:37:15 10° SSW 17:42:04 89° ESE 17:46:54 10° NNE
COSMO-SKYMED 1 2.5 17:38:48 10° NNE 17:43:09 68° ESE 17:47:27 10° S
YAOGAN 1 3.8 17:39:54 10° S 17:44:03 46° W 17:48:15 10° NNW
Cosmos 1703 4.3 17:41:26 10° SE 17:44:34 24° E 17:46:22 17° NE
Thor Agena Rocket 4.2 17:41:42 10° N 17:46:52 59° WNW 17:51:56 10° SSW
Cosmos 2058 3.1 17:43:58 10° SSE 17:47:54 47° E 17:51:52 10° NNE
Cosmos 1125 Rocket 3.4 17:42:49 10° NNW 17:48:03 80° ENE 17:53:13 10° SSE
Cosmos 2278 Rocket 2.1 17:42:53 10° NNW 17:48:34 69° ENE 17:54:13 10° SSE
Meteor 1-27 4.3 17:45:58 10° N 17:51:43 60° ENE 17:57:29 10° SSE
Cosmos 2279 Rocket 4.0 17:45:39 10° N 17:51:48 59° E 17:57:55 10° SSE
FREGAT/IRIS 4.2 17:55:17 10° SE 17:59:50 17° NNE 18:00:47 10° N
Spot 2 Rocket 4.4 17:54:11 10° ESE 17:58:20 26° ENE 18:02:30 10° N
NOAA 12 4.1 17:54:15 10° SSE 17:59:22 59° ENE 18:04:33 10° N
Cosmos 1626 3.1 17:56:18 10° SSE 17:59:17 26° E 17:59:17 26° E
Cosmos 1844 4.5 17:54:31 10° NNW 18:00:09 57° WSW 18:05:48 10° S
Cosmos 1340 Rocket 2.8 17:58:18 10° S 18:02:08 52° E 18:05:16 15° NNE
Cosmos 44 Rocket 3.8 17:57:11 10° SW 18:02:16 61° NW 18:06:56 12° NNE
CENTAUR R/B 3.7 17:59:02 10° WSW 18:04:50 39° NW 18:11:21 10° NNE
SL-14 R/B 3.6 18:04:36 10° SSW 18:08:29 68° W 18:12:27 10° N
Lacrosse 5 4.0 18:08:12 10° NW 18:11:11 15° N 18:13:44 11° NNE
Cosmos 1356 Rocket 3.9 18:07:39 10° SSE 18:11:16 34° E 18:11:16 34° E
Cosmos 2180 Rocket 4.4 18:05:49 10° N 18:11:58 71° E 18:18:09 10° SSE
Nadezhda 4 Rocket 4.3 18:06:36 10° SSE 18:12:26 44° E 18:18:21 10° NNE
Cosmos 1484 Rocket 4.4 18:09:08 10° SSW 18:12:47 37° W 18:16:30 10° NNW
COSMOS 2428 4.5 18:08:17 10° WSW 18:13:12 29° NW 18:18:09 10° N
Cosmos 2237 Rocket 2.3 18:07:57 10° SSW 18:13:35 78° WNW 18:19:13 10° NNE
Cosmos 1726 3.4 18:12:27 10° NNW 18:16:04 44° W 18:19:40 10° SSW
SL-16 R/B 2.3 18:13:32 10° S 18:18:57 50° ESE 18:21:40 28° NE
Cosmos 2151 3.7 18:14:52 10° SSW 18:18:59 52° W 18:23:06 10° N
Cosmos 1300 4.0 18:16:11 10° NNW 18:19:49 41° W 18:23:26 10° SSW
Cosmos 1900 4.5 18:19:31 10° NNW 18:24:21 50° NE 18:25:42 39° E
Cosmos 304 Rocket 3.6 18:20:57 10° S 18:25:44 72° ESE 18:28:11 29° NNE
Timation 1 Rocket 4.2 18:19:50 10° NNW 18:25:52 74° ENE 18:31:52 10° SSE
Cosmos 2297 3.6 18:23:03 10° NNW 18:28:46 69° ENE 18:34:28 10° SSE
Cosmos 1092 Rocket 4.2 18:24:46 10° SSE 18:30:42 44° E 18:35:04 18° NNE
Aureole 2 Rocket 3.0 18:27:54 10° SSW 18:31:33 62° WNW 18:33:25 28° N
Cosmos 1805 Rocket 3.6 18:30:17 10° S 18:34:43 83° W 18:38:22 16° N
BREEZE M DEB (TANK) 3.3 18:35:44 10° WNW 18:37:00 26° WNW 18:37:00 26° WNW
Lacrosse 5 rocket 1.3 18:35:57 10° NW 18:39:46 74° SW 18:40:18 62° S
Abrixas 3.8 18:37:49 10° WSW 18:39:46 38° WSW 18:39:46 38° WSW
Cosmos 773 Rocket 4.3 18:49:23 10° S 18:53:18 47° SSE 18:53:18 47° SSE
Sich 1 3.2 18:52:11 10° SSW 18:56:36 74° W 18:57:08 65° NNW
Cosmos 1633 Rocket 3.3 18:56:42 10° SSW 19:00:37 66° SW 19:00:37 66° SW
FengYun 1-2 T 4.3 18:56:10 10° S 19:01:44 77° WSW 19:07:17 10° NNW
Lacrosse 4 Rocket 4.0 19:00:16 10° NNW 19:00:22 11° NNW 19:00:22 11° NNW
FENGYUN 3A 3.7 19:00:08 10° S 19:05:28 75° WSW 19:10:52 10° NNW
USA 215 3.8 19:01:55 16° SSE 19:07:09 54° SW 19:13:34 10° NW
ALOS 2.6 19:03:54 10° S 19:08:31 62° W 19:13:10 10° NNW
Cosmos 2333 Rocket 4.3 19:12:19 10° W 19:16:36 22° NW 19:20:52 10° N
Resurs 01 Rocket 2.5 19:17:34 46° WNW 19:17:34 46° WNW 19:21:12 10° NNW
Cosmos 1461 4.4 19:15:32 10° SW 19:18:18 35° WSW 19:18:18 35° WSW
ATLAS 5 CENTAUR R/B 4.5 19:17:16 10° N 19:18:03 12° N 19:18:03 12° N
USA 229 DEB 4.1 19:44:03 10° SW 19:49:29 58° SW 19:49:29 58° SW
USA 229 4.1 19:44:10 10° SW 19:49:32 58° SW 19:49:32 58° SW
SL-16 R/B 4.0 19:58:41 10° WSW 20:03:20 26° NW 20:03:37 25° NW
